Location: Unspecified
(48.2082°N, 0.0000°E)
Time: 15:52:03
(UTC+00:00)

Transit 4A - Pass Details

Date: 23 June 2019
Orbit: 862 x 982 km, 66.8° (Epoch: 21 July)

Event Time Altitude Azimuth Distance (km) Brightness Sun altitude
Rises 18:09:10 0° 315° (NW) 3,685 12.2 16.1°
Reaches altitude 10° 18:12:32 10° 298° (WNW) 2,721 12.6 15.6°
Maximum altitude 18:16:43 19° 256° (WSW) 2,133 11.0 14.9°
Drops below altitude 10° 18:20:50 10° 215° (SW) 2,665 10.6 14.3°
Sets 18:24:06 0° 197° (SSW) 3,582 10.9 13.8°
